TimeEDT,TemperatureF,Dew PointF,Humidity,Sea Level PressureIn,VisibilityMPH,Wind Direction,Wind SpeedMPH,Gust SpeedMPH,PrecipitationIn,Events,Conditions,WindDirDegrees,DateUTC
12:54 AM,80.1,57.9,47,29.77,10.0,West,13.8,27.6,N/A,,Clear,280,2013-05-16 04:54:00
1:54 AM,78.1,57.9,50,29.77,10.0,West,12.7,24.2,N/A,,Clear,280,2013-05-16 05:54:00
2:54 AM,75.0,59.0,57,29.76,10.0,West,11.5,-,N/A,,Clear,280,2013-05-16 06:54:00
3:54 AM,73.0,59.0,61,29.77,10.0,West,9.2,-,N/A,,Clear,270,2013-05-16 07:54:00
4:54 AM,73.0,59.0,61,29.77,10.0,West,9.2,-,N/A,,Clear,270,2013-05-16 08:54:00
5:54 AM,73.0,57.9,59,29.78,10.0,West,11.5,-,N/A,,Clear,280,2013-05-16 09:54:00
6:54 AM,72.0,59.0,64,29.81,10.0,West,10.4,18.4,N/A,,Clear,280,2013-05-16 10:54:00
7:54 AM,75.0,59.0,57,29.82,10.0,WNW,9.2,17.3,N/A,,Scattered Clouds,290,2013-05-16 11:54:00
8:54 AM,80.1,59.0,48,29.84,10.0,NW,10.4,-,N/A,,Mostly Cloudy,310,2013-05-16 12:54:00
9:54 AM,84.0,59.0,43,29.84,10.0,WNW,9.2,-,N/A,,Scattered Clouds,290,2013-05-16 13:54:00
10:54 AM,86.0,55.0,35,29.84,10.0,NW,15.0,24.2,N/A,,Mostly Cloudy,320,2013-05-16 14:54:00
11:54 AM,86.0,55.9,36,29.84,10.0,NW,9.2,17.3,N/A,,Mostly Cloudy,320,2013-05-16 15:54:00
12:54 PM,87.1,57.9,37,29.84,10.0,NW,10.4,-,N/A,,Mostly Cloudy,320,2013-05-16 16:54:00
1:54 PM,86.0,57.9,38,29.84,10.0,NNW,6.9,-,N/A,,Mostly Cloudy,330,2013-05-16 17:54:00
2:54 PM,88.0,57.0,35,29.83,10.0,WNW,10.4,-,N/A,,Mostly Cloudy,290,2013-05-16 18:54:00
3:54 PM,89.1,55.9,32,29.82,10.0,West,11.5,17.3,N/A,,Mostly Cloudy,270,2013-05-16 19:54:00
4:54 PM,88.0,55.0,32,29.80,10.0,SW,9.2,-,N/A,,Partly Cloudy,230,2013-05-16 20:54:00
5:54 PM,82.4,57.2,42,29.83,10.0,SSW,8.1,-,N/A,,Clear,210,2013-05-16 21:54:00
6:54 PM,79.0,57.9,48,29.83,10.0,SW,9.2,-,N/A,,Partly Cloudy,220,2013-05-16 22:54:00
7:54 PM,79.0,57.9,48,29.84,10.0,WNW,15.0,29.9,N/A,,Partly Cloudy,300,2013-05-16 23:54:00
8:54 PM,75.9,55.0,48,29.83,10.0,North,10.4,-,N/A,,Clear,350,2013-05-17 00:54:00
9:54 PM,75.0,55.0,50,29.87,10.0,NNW,10.4,-,N/A,,Clear,330,2013-05-17 01:54:00
10:54 PM,73.9,55.9,53,29.89,10.0,WNW,6.9,-,N/A,,Clear,300,2013-05-17 02:54:00
11:54 PM,72.0,57.0,59,29.90,10.0,NW,5.8,-,N/A,,Clear,310,2013-05-17 03:54:00